Regional Weather Roundup
Issued by NWS San Angelo, TX

Home | Current Version | Previous Version | Text Only | Print | Product List | Glossary On
Versions: 1 2 3 4 5 6 7 8 9 10 11 12 13 14 15 16 17 18 19 20 21 22 23 24 25 26 27 28 29 30 31 32 33 34 35 36 37 38 39 40 41 42 43 44 45 46 47 48 49 50
598
ASUS44 KSJT 230910
RWRSJT
WEST CENTRAL TEXAS REGIONAL WEATHER ROUNDUP
NATIONAL WEATHER SERVICE SAN ANGELO TX
300 AM CST THU FEB 23 2017

NOTE: "FAIR" INDICATES FEW OR NO CLOUDS BELOW 12,000 FEET WITH NO
SIGNIFICANT WEATHER AND/OR OBSTRUCTIONS TO VISIBILITY.

TXZ049-054-064>066-071>073-076>078-098-099-113-114-127-128-139-140-
154-155-168>170-231000
...LOCATIONS ACROSS WEST CENTRAL TEXAS...

CITY           SKY/WX    TMP DP  RH WIND       PRES   REMARKS
SAN ANGELO     CLEAR     51  39  63 SW7       29.71F
ABILENE        CLEAR     61  37  41 S10       29.68F
DYESS AFB      CLEAR     55  39  54 SW5       29.66F
JUNCTION       CLEAR     46  42  86 NW3       29.73F
SWEETWATER     CLEAR     62  33  32 SW13      29.72F
BROWNWOOD      CLEAR     46  45  93 CALM      29.70F
COLEMAN        SUNNY     55  40  56 W3        29.70F
SONORA         CLEAR     41  37  87 CALM      29.79S
OZONA          NOT AVBL
BRADY          NOT AVBL
$$

TEXAS PANHANDLE/OKLAHOMA PANHANDLE

CITY           SKY/WX    TMP DP  RH WIND       PRES   REMARKS
AMARILLO       PTCLDY    51  32  48 W6        29.70F
BORGER         MOCLDY    58  30  34 SW8       29.66F
CANADIAN       CLOUDY    50  33  52 W5        29.64F
DALHART        CLEAR     42  31  64 W8        29.69F WCI  37
DUMAS          MOSUNNY   46  30  54 W9        29.68F
GUYMON         NOT AVBL
HEREFORD       MOSUNNY   39  34  83 SW5       29.73F WCI  35
PAMPA          MOSUNNY   54  31  41 W9        29.68F
PERRYTON       PTCLDY    58  29  33 W13       29.62F
$$

SOUTHERN PANHANDLE/SOUTH PLAINS/ROLLING PLAINS

CITY           SKY/WX    TMP DP  RH WIND       PRES   REMARKS
LUBBOCK        CLEAR     50  30  46 SW7       29.71F
SNYDER         CLEAR     55  35  47 SW7       29.72F
CHILDRESS      CLEAR     59  35  40 W8        29.63F
SEMINOLE       SUNNY     57  27  31 W10       29.75F
$$

PERMIAN BASIN

CITY           SKY/WX    TMP DP  RH WIND       PRES   REMARKS
MIDLAND        CLEAR     61  30  31 SW9       29.73F
ODESSA         CLEAR     59  28  30 SW5       29.74F
WINK           CLEAR     47  28  47 NW7       29.72F
$$

FAR WEST/SOUTHWEST MOUNTAINS/TRANS PECOS

CITY           SKY/WX    TMP DP  RH WIND       PRES   REMARKS
ALPINE         SUNNY     57  20  24 W8        29.91S
DRYDEN           N/A     58  36  43 N10       29.71F
EL PASO        CLEAR     63  28  26 SW12      29.81F
FORT STOCKTON  CLEAR     61  24  24 S12       29.75F
GUADALUPE PASS CLEAR     57  24  28 SW12G20   29.88F
MARFA          CLOUDY    38  20  48 N7        29.91S WCI  33
PECOS          SUNNY     48  23  37 CALM      29.74F
$$

DALLAS/FORT WORTH METROPLEX

CITY           SKY/WX    TMP DP  RH WIND       PRES   REMARKS
DFW AIRPORT    CLEAR     60  49  66 S8        29.63F
FTW MEACHAM    CLEAR     63  47  55 S5        29.64F
DAL-EXECUTIVE  CLEAR     62  47  57 S7        29.64F
GRAND PRAIRIE  CLEAR     61  47  60 S8        29.66F
ADDISON        CLEAR     60  46  58 S8        29.66F
MESQUITE       SUNNY     55  45  69 S7        29.66F
LANCASTER      SUNNY     54  45  71 CALM      29.67F
$$

NORTH CENTRAL TEXAS

CITY           SKY/WX    TMP DP  RH WIND       PRES   REMARKS
SHRMAN/DENISON SUNNY     59  44  58 S9        29.65F
GAINESVILLE    CLEAR     55  47  75 S3        29.66F
BRIDGEPORT     SUNNY     49  44  84 CALM      29.65F
DENTON         CLEAR     55  48  77 SE6       29.63F
WAXAHACHIE     SUNNY     56  48  75 S7        29.68F
GRANBURY       SUNNY     56  49  76 CALM      29.67F
$$

WESTERN NORTH TEXAS

CITY           SKY/WX    TMP DP  RH WIND       PRES   REMARKS
WICHITA FALLS  CLEAR     53  43  68 S10       29.59F
VERNON         SUNNY     55  42  61 W7        29.62F
BRECKENRIDGE   SUNNY     60  40  48 S7        29.65F
COMANCHE       CLEAR     65  42  44 SW9       29.69F
$$

CENTRAL AND SOUTH CENTRAL TEXAS

CITY           SKY/WX    TMP DP  RH WIND       PRES   REMARKS
AUSTIN/BERGSTM CLEAR     50  44  80 CALM      29.73F
WACO           CLEAR     55  48  77 S7        29.67F
HILLSBORO      SUNNY     57  49  74 S8        29.68F
TEMPLE         CLEAR     55  48  77 S12       29.70F
KILLEEN-GRAY   CLEAR     57  46  65 S7        29.68F
FORT HOOD      CLEAR     61  45  55 S7        29.66F
GEORGETOWN     CLEAR     55  45  67 S7        29.72S
LAGO VISTA     FAIR      67  43  42 SW8       29.73F
SAN MARCOS     CLEAR     57  45  62 S6        29.74F
NEW BRAUNFELS  CLEAR     57  45  64 W3        29.72F
RANDOLPH AFB   CLEAR     60  41  49 SW5       29.73F
SAN ANTONIO    CLEAR     53  46  77 N5        29.74F
STINSON        CLEAR     55  45  68 CALM      29.72F
PLEASANTON     NOT AVBL
LA GRANGE      CLEAR     58  53  85 S5        29.72F
GIDDINGS       SUNNY     58  48  70 S6        29.74F
$$

EAST TEXAS

CITY           SKY/WX    TMP DP  RH WIND       PRES   REMARKS
PARIS          CLEAR     55  52  88 SE10      29.69F
CLARKSVILLE    NOT AVBL
TYLER          CLEAR     59  53  80 S9        29.70F
LONGVIEW       CLEAR     60  57  89 SE7       29.71F
PALESTINE      SUNNY     61  51  71 SE6       29.72F
NACOGDOCHES    CLEAR     55  54  94 S5        29.73F
$$

TEXAS HILL COUNTRY AND EDWARDS PLATEAU

CITY           SKY/WX    TMP DP  RH WIND       PRES   REMARKS
LLANO          SUNNY     50  46  87 CALM      29.74F
HORSESHOE BAY    N/A     60  43  53 SW3       29.72S
KERRVILLE      CLEAR     46  44  91 CALM      29.76F
FREDERICKSBRG  CLEAR     46  41  81 NW5       29.75F
ROCKSPRINGS    SUNNY     61  37  41 S7        29.77F
HONDO          CLEAR     50  44  80 N6        29.74F
UVALDE         SUNNY     53  43  69 CALM      29.73F
DEL RIO        CLEAR     57  40  52 E5        29.68F
$$

SOUTHEAST TEXAS

CITY           SKY/WX    TMP DP  RH WIND       PRES   REMARKS
COLLEGE STN    CLEAR     59  48  67 S6        29.73F
CALDWELL       NOT AVBL
CROCKETT       SUNNY     55  54  94 CALM      29.76S
BRENHAM        CLEAR     59  53  79 S3        29.75S
HUNTSVILLE     CLEAR     60  48  64 S6        29.73F
CONROE         CLEAR     48  47  96 CALM      29.75F
HOUSTON BUSH   CLEAR     56  51  84 CALM      29.75F
HOUSTON HOBBY  CLEAR     57  54  89 CALM      29.74F
PERLAND        CLEAR     58  53  84 CALM      29.76F
WHARTON        SUNNY     57  55  94 S3        29.76F
$$

THE UPPER TEXAS COAST

CITY           SKY/WX    TMP DP  RH WIND       PRES   REMARKS
ORANGE         SUNNY     60  60  98 S3        29.78F
PORT ARTHUR    CLEAR     57  54  89 SE6       29.75F
GALVESTON        N/A     65  61  87 SE9       29.75F
ANGLETON       CLEAR     61  59  93 S6        29.75F
BAY CITY       FOG       57  57 100 CALM      29.75F VSB 1
$$

TEXAS COASTAL BEND, RIO GRANDE PLAINS DEEP SOUTH TEXAS

CITY           SKY/WX    TMP DP  RH WIND       PRES   REMARKS
VICTORIA         N/A     56  55  97 S5        29.75F FOG
BEEVILLE       FAIR      56  56 100 S5        29.74F
ROCKPORT       CLEAR     67  63  87 S6        29.74F
PORT ARANSAS   SUNNY     68  65  90 S7        29.74F
PORT LAVACA    FOG       59  59 100 CALM      29.75F VSB 1/4
CORPUS CHRISTI CLEAR     58  57  97 S10       29.73F
KINGSVILLE NAS   N/A     56  56 100 SE3       29.73F
COTULLA        CLEAR     59  47  64 SE6       29.71F
LAREDO         CLEAR     63  41  44 SE9       29.71F
BROWNSVILLE    FOG       62  62 100 S6        29.76F VSB 1
PORT ISABEL    FOG       64  64 100 S7        29.74F VSB 3/4
HEBBRONVILLE   SUNNY     55  43  63 CALM      29.74F
MCALLEN        CLEAR     58  48  69 SE7       29.74F
WESLACO        CLEAR     62  58  88 S7        29.73F
FALFURRIAS     SUNNY    N/A N/A N/A S3        29.73F
EDINBURG       SUNNY     57  54  90 CALM      29.74F
$$




USA.gov is the U.S. government's official web portal to all federal, state and local government web resources and services.